Measurement date,Total daily rainfall,Maximum daily air temperature,Minimum daily air temperature
Date ,Rainfall,Air temperature,Air temperature
Units: Year month day,Units: millimetre,Units: degree Celsius,Units: degree Celsius
2012-01-01,2.5,11.1,9.4
2012-01-02,8.9,11.9,1.8
2012-01-03,2.7,9.2,2.6
2012-01-04,4.8,11.2,4.3
2012-01-05,0.3,9.3,6.0
2012-01-06,0.0,10.9,0.3
2012-01-07,0.0,9.9,0.6
2012-01-08,0.2,11.0,7.0
2012-01-09,0.3,11.0,7.2
2012-01-10,0.1,11.5,3.3
2012-01-11,0.0,11.9,6.8
2012-01-12,0.1,11.7,9.0
2012-01-13,0.2,7.4,-0.3
2012-01-14,0.0,4.4,-6.0
2012-01-15,0.1,5.1,-5.2
2012-01-16,0.2,4.5,-4.3
2012-01-17,0.2,9.1,-6.2
2012-01-18,3.8,12.4,-4.6
2012-01-19,2.1,9.1,2.5
2012-01-20,0.4,11.9,3.9
2012-01-21,0.1,11.3,7.2
2012-01-22,0.0,11.1,5.0
2012-01-23,6.8,8.3,2.6
2012-01-24,1.0,11.9,-0.6
2012-01-25,3.2,11.7,4.9
2012-01-26,0.6,7.2,2.5
2012-01-27,1.6,7.9,1.2
2012-01-28,0.0,5.9,0.4
2012-01-29,0.3,3.7,-2.6
2012-01-30,0.0,4.2,-0.6
2012-01-31,0.0,1.9,-5.5
2012-02-01,0.0,3.6,-3.7
2012-02-02,0.0,2.4,-5.3
2012-02-03,0.0,2.0,-8.5
2012-02-04,2.6,3.2,-8.9
2012-02-05,1.3,5.6,-4.2
2012-02-06,0.7,5.7,-1.0
2012-02-07,0.2,1.1,-3.1
2012-02-08,0.0,1.4,-6.8
2012-02-09,3.6,1.8,-3.9
2012-02-10,0.9,1.4,-2.7
2012-02-11,0.1,2.7,-2.7
2012-02-12,0.1,7.6,-1.8
2012-02-13,0.1,8.5,2.2
2012-02-14,0.0,9.0,3.4
2012-02-15,0.0,9.9,5.1
2012-02-16,0.0,10.0,2.6
2012-02-17,0.3,11.6,5.2
2012-02-18,3.9,9.1,7.3
2012-02-19,0.5,6.3,0.1
2012-02-20,0.0,8.8,-1.7
2012-02-21,0.0,11.8,4.0
2012-02-22,0.3,12.6,8.5
2012-02-23,0.0,15.4,9.4
2012-02-24,0.3,13.2,8.8
2012-02-25,0.0,10.9,1.4
2012-02-26,0.7,12.1,-0.4
2012-02-27,0.3,11.6,3.0
2012-02-28,0.0,12.6,8.8
2012-02-29,0.2,14.1,7.4
2012-03-01,0.0,14.0,-1.1
2012-03-02,0.6,12.8,0.2
2012-03-03,6.8,12.6,4.0
2012-03-04,2.4,6.5,3.0
2012-03-05,0.1,9.1,2.5
2012-03-06,1.3,11.0,-3.0
2012-03-07,0.6,11.0,1.9
2012-03-08,0.0,11.6,1.1
2012-03-09,0.0,12.8,7.1
2012-03-10,0.0,15.3,8.9
2012-03-11,0.0,12.8,5.3
2012-03-12,0.2,10.6,6.1
2012-03-13,0.0,9.6,6.1
2012-03-14,0.3,9.4,6.0
2012-03-15,0.0,9.0,-1.2
2012-03-16,1.4,11.1,2.9
2012-03-17,1.5,11.8,5.0
2012-03-18,0.0,11.3,-0.1
2012-03-19,0.0,11.9,-1.1
2012-03-20,0.0,14.5,3.1
2012-03-21,0.1,13.6,7.2
2012-03-22,0.0,15.8,2.4
2012-03-23,0.1,15.9,7.0
2012-03-24,0.1,18.6,3.9
2012-03-25,0.1,17.8,3.3
2012-03-26,0.0,19.1,0.5
2012-03-27,0.0,19.3,0.2
2012-03-28,0.0,19.2,-0.1
2012-03-29,0.0,18.0,0.5
2012-03-30,0.0,12.9,6.3
2012-03-31,0.0,11.5,6.8
2012-04-01,0.0,14.0,-3.1
2012-04-02,1.6,11.1,0.1
2012-04-03,6.2,10.5,4.9
2012-04-04,3.4,4.9,0.6
2012-04-05,0.0,8.9,2.2
2012-04-06,0.9,10.1,-3.1
2012-04-07,0.8,11.4,6.0
2012-04-08,2.0,13.0,7.3
2012-04-09,4.0,10.6,8.1
2012-04-10,0.2,11.4,3.8
2012-04-11,4.5,11.7,1.0
2012-04-12,0.6,12.7,3.9
2012-04-13,4.0,12.2,-1.9
2012-04-14,0.2,10.3,3.8
2012-04-15,0.0,9.8,-1.2
2012-04-16,2.4,11.1,-1.6
2012-04-17,1.6,13.1,5.9
2012-04-18,5.8,10.2,5.1
2012-04-19,3.1,11.3,5.1
2012-04-20,4.0,10.7,1.8
2012-04-21,2.3,12.1,-1.2
2012-04-22,2.2,12.4,3.1
2012-04-23,0.5,12.7,4.8
2012-04-24,6.0,12.0,2.6
2012-04-25,11.5,11.0,4.0
2012-04-26,9.5,13.0,5.7
2012-04-27,3.2,8.8,6.6
2012-04-28,8.3,10.5,5.2
2012-04-29,13.0,12.0,3.8
2012-04-30,3.7,17.5,4.3
2012-05-01,3.9,11.7,10.4
2012-05-02,3.7,16.9,8.2
2012-05-03,4.8,9.5,6.7
2012-05-04,0.0,10.3,6.3
2012-05-05,0.0,9.6,0.4
2012-05-06,0.0,11.3,2.4
2012-05-07,12.4,12.8,2.6
2012-05-08,0.3,16.0,4.3
2012-05-09,10.1,16.6,7.7
2012-05-10,0.6,19.2,10.7
2012-05-11,0.5,12.4,8.9
2012-05-12,0.0,14.0,3.2
2012-05-13,0.1,15.9,2.1
2012-05-14,2.1,14.4,8.4
2012-05-15,2.7,11.8,3.8
2012-05-16,0.3,12.8,1.4
2012-05-17,0.1,14.1,2.7
2012-05-18,4.8,15.1,7.9
2012-05-19,0.1,10.7,7.8
2012-05-20,0.0,13.5,7.3
2012-05-21,0.0,18.4,4.4
2012-05-22,0.0,22.1,5.5
2012-05-23,0.0,24.1,9.0
2012-05-24,0.0,24.7,11.5
2012-05-25,0.0,24.9,13.3
2012-05-26,0.0,24.7,12.1
2012-05-27,0.0,25.6,8.5
2012-05-28,0.0,24.8,10.8
2012-05-29,0.0,22.1,8.9
2012-05-30,1.3,22.2,7.7
2012-05-31,0.4,16.6,10.9
2012-06-01,0.2,19.5,11.2
2012-06-02,11.6,15.0,12.1
2012-06-03,9.7,11.4,8.4
2012-06-04,0.0,14.9,6.4
2012-06-05,2.2,16.3,5.9
2012-06-06,4.6,18.1,11.2
2012-06-07,8.4,15.0,9.6
2012-06-08,1.4,14.9,11.5
2012-06-09,0.0,15.0,9.4
2012-06-10,0.5,18.2,6.1
2012-06-11,3.4,15.4,10.3
2012-06-12,0.0,15.1,9.2
2012-06-13,0.0,16.7,8.3
2012-06-14,11.6,17.7,6.8
2012-06-15,4.3,16.7,10.1
2012-06-16,2.8,15.2,11.7
2012-06-17,2.8,16.1,10.7
2012-06-18,0.2,18.5,9.3
2012-06-19,0.0,18.7,9.4
2012-06-20,6.3,21.5,6.2
2012-06-21,7.1,16.5,9.9
2012-06-22,0.2,15.3,10.5
2012-06-23,4.7,17.6,10.5
2012-06-24,0.1,18.2,10.5
2012-06-25,0.0,19.6,10.0
2012-06-26,1.3,21.2,10.3
2012-06-27,4.1,24.4,15.4
2012-06-28,3.0,24.4,15.8
2012-06-29,1.1,19.7,13.0
2012-06-30,1.1,19.2,12.3
2012-07-01,1.8,17.6,7.9
2012-07-02,6.5,17.5,12.7
2012-07-03,3.0,17.9,13.4
2012-07-04,1.4,21.7,15.4
2012-07-05,9.5,22.5,11.9
2012-07-06,20.3,17.0,14.8
2012-07-07,1.7,19.7,11.8
2012-07-08,7.3,21.0,11.8
2012-07-09,12.7,18.4,12.6
2012-07-10,7.1,15.0,11.6
2012-07-11,0.5,18.1,9.2
2012-07-12,9.0,18.7,6.3
2012-07-13,8.4,17.3,12.6
2012-07-14,2.0,17.3,11.1
2012-07-15,1.2,17.4,9.0
2012-07-16,5.7,19.6,11.8
2012-07-17,0.5,20.3,13.7
2012-07-18,6.7,21.1,15.0
2012-07-19,0.2,16.9,11.9
2012-07-20,0.0,17.1,11.8
2012-07-21,0.0,19.8,6.5
2012-07-22,0.1,22.8,13.1
2012-07-23,0.0,24.3,13.3
2012-07-24,0.0,27.2,11.3
2012-07-25,0.0,24.2,13.3
2012-07-26,0.0,25.9,14.8
2012-07-27,0.0,20.6,12.0
2012-07-28,0.0,18.3,8.7
2012-07-29,0.1,18.1,9.3
2012-07-30,5.1,18.1,8.4
2012-07-31,0.3,18.1,8.6
2012-08-01,2.0,20.0,13.4
2012-08-02,6.4,20.5,11.0
2012-08-03,0.4,20.1,8.6
2012-08-04,2.7,20.6,12.8
2012-08-05,2.4,20.0,9.9
2012-08-06,3.0,19.1,7.8
2012-08-07,0.7,19.7,10.7
2012-08-08,0.0,22.3,13.5
2012-08-09,0.0,23.1,12.0
2012-08-10,0.0,25.4,9.3
2012-08-11,0.6,22.8,13.7
2012-08-12,1.9,22.2,13.6
2012-08-13,0.2,21.9,14.3
2012-08-14,0.0,24.2,14.2
2012-08-15,12.4,20.3,15.9
2012-08-16,1.6,21.6,13.9
2012-08-17,4.8,20.7,16.1
2012-08-18,0.1,23.9,16.2
2012-08-19,2.3,20.9,15.2
2012-08-20,0.1,22.9,12.1
2012-08-21,4.2,19.8,11.9
2012-08-22,0.4,20.0,10.9
2012-08-23,0.6,18.1,12.0
2012-08-24,4.1,18.3,11.6
2012-08-25,4.2,20.6,11.9
2012-08-26,0.2,19.8,9.3
2012-08-27,8.4,17.5,10.7
2012-08-28,6.9,19.8,10.1
2012-08-29,8.4,17.0,12.2
2012-08-30,1.1,17.6,9.2
2012-08-31,0.0,17.8,4.9
2012-09-01,0.0,15.6,11.6
2012-09-02,0.2,16.4,13.7
2012-09-03,0.0,15.4,8.2
2012-09-04,0.0,16.6,13.0
2012-09-05,0.1,14.5,6.1
2012-09-06,0.0,12.0,3.5
2012-09-07,0.1,15.4,8.4
2012-09-08,0.2,14.5,7.9
2012-09-09,0.6,15.1,5.1
2012-09-10,1.4,17.1,14.2
2012-09-11,0.2,15.4,10.2
2012-09-12,2.7,11.0,4.9
2012-09-13,0.1,11.0,4.2
2012-09-14,0.1,15.9,10.8
2012-09-15,0.0,11.2,4.4
2012-09-16,0.5,15.2,12.6
2012-09-17,1.8,14.9,7.6
2012-09-18,0.7,12.3,8.7
2012-09-19,0.9,10.8,2.8
2012-09-20,1.3,11.5,7.8
2012-09-21,1.9,11.9,9.3
2012-09-22,0.1,9.9,1.7
2012-09-23,43.5,8.4,6.6
2012-09-24,14.5,10.3,8.4
2012-09-25,13.2,11.7,7.1
2012-09-26,0.9,9.7,9.2
2012-09-27,0.2,11.3,6.4
2012-09-28,1.2,12.0,11.2
2012-09-29,0.0,11.6,6.8
2012-09-30,2.7,13.1,5.5
2012-10-01,2.0,13.6,8.5
2012-10-02,3.3,11.2,8.5
2012-10-03,0.4,12.2,7.7
2012-10-04,6.0,8.2,3.3
2012-10-05,5.6,10.8,9.3
2012-10-06,0.1,8.7,3.7
2012-10-07,0.4,9.4,3.5
2012-10-08,1.2,9.7,7.8
2012-10-09,0.0,11.7,8.1
2012-10-10,0.4,9.9,8.2
2012-10-11,15.8,11.3,9.7
2012-10-12,0.0,12.9,7.2
2012-10-13,0.8,7.3,2.5
2012-10-14,0.1,5.2,-1.8
2012-10-15,3.3,5.6,2.6
2012-10-16,6.1,11.2,8.6
2012-10-17,6.5,10.8,7.3
2012-10-18,0.7,11.9,9.0
2012-10-19,0.1,10.5,5.3
2012-10-20,0.2,10.3,5.1
2012-10-21,1.7,9.7,4.5
2012-10-22,1.3,11.0,10.5
2012-10-23,0.2,12.4,11.8
2012-10-24,0.0,12.6,12.1
2012-10-25,0.1,13.0,9.9
2012-10-26,0.0,8.4,5.8
2012-10-27,1.0,4.3,0.0
2012-10-28,1.3,3.6,-0.1
2012-10-29,0.4,7.9,6.5
2012-10-30,0.0,6.3,1.3
2012-10-31,9.5,7.7,6.8
2012-11-01,1.4,5.8,4.1
2012-11-02,1.3,6.2,2.8
2012-11-03,1.3,4.7,2.3
2012-11-04,1.2,4.0,1.4
2012-11-05,0.0,4.8,2.6
2012-11-06,0.4,2.3,-0.7
2012-11-07,0.0,9.3,3.4
2012-11-08,0.0,10.1,8.3
2012-11-09,2.9,8.7,7.3
2012-11-10,0.5,8.2,4.9
2012-11-11,0.6,4.2,-1.5
2012-11-12,1.7,6.8,3.9
2012-11-13,0.0,11.7,10.2
2012-11-14,0.2,11.3,9.1
2012-11-15,0.0,9.2,3.1
2012-11-16,10.4,5.5,3.5
2012-11-17,0.1,8.3,6.0
2012-11-18,0.2,2.9,-2.6
2012-11-19,1.3,8.2,5.1
2012-11-20,17.9,12.0,10.7
2012-11-21,5.4,10.1,5.1
2012-11-22,11.3,11.2,3.2
2012-11-23,1.0,6.8,1.0
2012-11-24,28.2,3.3,-0.8
2012-11-25,2.4,8.1,5.0
2012-11-26,9.2,8.9,2.6
2012-11-27,0.2,5.4,3.8
2012-11-28,0.0,5.8,4.6
2012-11-29,0.2,2.2,-2.8
2012-11-30,0.5,-0.3,-1.9
2012-12-01,0.4,-0.8,-3.7
2012-12-02,5.2,0.8,-3.6
2012-12-03,0.2,7.8,2.5
2012-12-04,1.7,4.1,-0.4
2012-12-05,0.0,3.0,-1.4
2012-12-06,9.0,-0.7,-4.9
2012-12-07,0.5,4.6,-0.2
2012-12-08,0.1,6.0,0.6
2012-12-09,0.0,7.4,4.5
2012-12-10,0.1,4.6,-0.8
2012-12-11,0.1,0.2,-4.3
2012-12-12,0.0,-1.2,-3.6
2012-12-13,0.6,-3.3,-5.8
2012-12-14,11.6,3.6,-1.9
2012-12-15,0.5,7.5,4.5
2012-12-16,2.7,5.7,2.4
2012-12-17,3.7,5.9,3.5
2012-12-18,0.0,6.9,1.1
2012-12-19,20.3,5.2,-0.5
2012-12-20,8.9,8.3,5.5
2012-12-21,8.5,7.5,3.1
2012-12-22,6.2,7.1,3.8
2012-12-23,2.8,13.6,9.3
2012-12-24,8.3,7.0,4.1
2012-12-25,1.0,7.2,4.9
2012-12-26,7.9,6.6,3.4
2012-12-27,4.8,7.7,4.9
2012-12-28,4.6,8.0,2.0
2012-12-29,7.6,11.0,9.4
2012-12-30,1.3,5.6,3.3
2012-12-31,4.1,10.7,9.0
2013-01-01,0.0,7.4,1.2
2013-01-02,0.0,5.9,2.2
2013-01-03,0.1,11.1,7.2
2013-01-04,0.0,10.3,8.5
2013-01-05,0.0,8.8,7.2
2013-01-06,0.1,9.3,5.7
2013-01-07,0.0,8.5,7.4
2013-01-08,4.2,9.2,6.0
2013-01-09,0.2,9.5,1.2
2013-01-10,1.3,1.5,-2.0
2013-01-11,4.7,4.6,1.5
2013-01-12,0.1,4.2,2.1
2013-01-13,4.4,2.5,-2.2
2013-01-14,7.5,-0.1,-1.9
2013-01-15,0.1,2.4,-0.9
2013-01-16,0.4,-1.2,-3.3
2013-01-17,1.3,-1.3,-2.3
2013-01-18,3.4,1.0,-0.7
2013-01-19,0.8,-1.0,-2.3
2013-01-20,3.0,-0.5,-1.4
2013-01-21,0.7,-0.1,-0.7
2013-01-22,2.4,0.6,-3.6
2013-01-23,1.4,0.2,-0.6
2013-01-24,0.3,0.1,-0.6
2013-01-25,12.6,-2.8,-9.6
2013-01-26,9.2,3.1,-0.4
2013-01-27,0.7,9.9,5.5
2013-01-28,1.8,4.6,0.6
2013-01-29,3.5,10.6,7.4
2013-01-30,3.8,13.3,6.1
2013-01-31,0.8,8.1,5.4
2013-02-01,1.9,7.9,3.5
2013-02-02,0.1,5.4,0.7
2013-02-03,0.9,3.1,-2.5
2013-02-04,3.7,10.4,7.1
2013-02-05,3.5,6.3,0.5
2013-02-06,0.0,5.6,2.8
2013-02-07,1.7,2.5,-2.3
2013-02-08,4.1,2.7,0.4
2013-02-09,4.6,3.5,1.6
2013-02-10,16.9,4.1,3.2
2013-02-11,1.3,1.1,-0.1
2013-02-12,0.0,1.0,0.4
2013-02-13,10.7,0.4,-0.4
2013-02-14,0.1,7.4,2.7
2013-02-15,0.1,4.2,-0.8
2013-02-16,0.2,5.8,-1.6
2013-02-17,0.1,5.6,-1.0
2013-02-18,0.0,2.4,-0.9
2013-02-19,0.3,1.9,-3.9
2013-02-20,0.0,1.0,-2.2
2013-02-21,0.0,0.0,-0.7
2013-02-22,0.0,-0.1,-0.9
2013-02-23,0.0,0.3,-1.2
2013-02-24,0.0,0.7,-0.8
2013-02-25,0.1,1.9,0.0
2013-02-26,0.0,3.9,2.0
2013-02-27,0.1,3.5,1.9
2013-02-28,0.0,2.7,-0.2
2013-03-01,0.0,5.0,3.5
2013-03-02,0.0,5.2,2.0
2013-03-03,0.1,2.9,-3.9
2013-03-04,0.0,5.1,-1.3
2013-03-05,0.0,2.9,-2.8
2013-03-06,3.3,6.2,2.9
2013-03-07,6.2,7.0,5.3
2013-03-08,4.7,8.1,7.0
2013-03-09,0.2,6.6,4.4
2013-03-10,0.0,4.5,2.0
2013-03-11,0.0,0.0,-1.7
2013-03-12,0.0,0.4,-3.5
2013-03-13,0.1,3.3,-1.0
2013-03-14,0.2,1.7,-4.5
2013-03-15,8.5,4.9,3.1
2013-03-16,12.4,5.5,2.9
2013-03-17,0.2,2.5,-0.8
2013-03-18,2.9,4.1,-1.8
2013-03-19,0.3,4.6,0.6
2013-03-20,0.0,4.9,1.2
2013-03-21,12.9,2.6,-0.4
2013-03-22,5.8,2.7,-0.1
2013-03-23,3.4,0.5,-0.2
2013-03-24,0.7,-0.2,-1.6
2013-03-25,0.6,-0.1,-0.6
2013-03-26,0.2,0.3,-0.5
2013-03-27,0.1,1.9,-1.3
2013-03-28,0.0,1.8,-1.7
2013-03-29,0.0,3.6,-1.8
2013-03-30,0.0,2.8,-2.5
2013-03-31,0.0,4.8,-4.5
2013-04-01,0.0,8.1,-2.5
2013-04-02,0.0,7.5,-0.4
2013-04-03,0.0,4.6,-1.6
2013-04-04,0.0,2.6,-0.2
2013-04-05,0.1,4.8,-1.6
2013-04-06,0.0,6.4,-2.3
2013-04-07,0.0,4.1,-5.4
2013-04-08,0.0,4.5,1.6
2013-04-09,0.0,6.1,1.5
2013-04-10,1.0,7.2,2.1
2013-04-11,3.7,7.8,5.1
2013-04-12,3.7,6.9,2.6
2013-04-13,1.9,10.8,-0.1
2013-04-14,1.1,12.2,10.9
2013-04-15,0.2,12.5,8.8
2013-04-16,0.2,12.7,9.0
2013-04-17,0.4,11.1,4.1
2013-04-18,1.4,11.7,8.1
2013-04-19,0.0,11.4,6.1
2013-04-20,0.0,11.3,-0.7
2013-04-21,0.3,11.0,-0.1
2013-04-22,0.0,10.6,1.4
2013-04-23,0.0,14.8,4.4
2013-04-24,0.0,11.6,4.7
2013-04-25,1.2,12.5,8.8
2013-04-26,0.2,11.4,5.5
2013-04-27,0.2,7.8,2.2
2013-04-28,1.4,6.6,-0.3
2013-04-29,0.3,11.8,3.4
2013-04-30,0.0,11.4,-0.1
2013-05-01,0.0,12.2,-0.8
2013-05-02,0.0,14.3,2.1
2013-05-03,0.4,14.0,1.9
2013-05-04,0.4,12.3,8.1
2013-05-05,0.0,17.0,3.0
2013-05-06,0.0,15.2,1.0
2013-05-07,1.7,19.2,4.4
2013-05-08,0.7,15.7,9.9
2013-05-09,2.9,12.5,6.5
2013-05-10,0.5,10.4,8.6
2013-05-11,2.5,10.5,5.6
2013-05-12,0.7,14.2,4.6
2013-05-13,2.0,12.6,7.7
2013-05-14,29.5,12.0,2.5
2013-05-15,1.1,6.9,2.9
2013-05-16,2.8,14.0,0.3
2013-05-17,0.0,9.3,3.6
2013-05-18,0.0,15.0,4.7
2013-05-19,0.0,16.2,4.0
2013-05-20,0.0,13.5,6.1
2013-05-21,0.0,14.9,11.0
2013-05-22,1.1,12.2,6.5
2013-05-23,4.2,11.0,4.4
2013-05-24,0.4,7.8,4.2
2013-05-25,0.0,10.6,1.5
2013-05-26,0.0,15.7,1.8
2013-05-27,2.6,12.6,1.0
2013-05-28,16.1,9.5,7.3
2013-05-29,4.2,9.5,7.2
2013-05-30,1.6,14.4,10.5
2013-05-31,0.0,17.1,11.0
2013-06-01,0.0,14.7,4.0
2013-06-02,0.0,14.6,3.8
2013-06-03,0.0,17.5,4.7
2013-06-04,0.0,16.4,5.4
2013-06-05,0.0,15.3,8.7
2013-06-06,0.0,12.9,6.0
2013-06-07,0.0,15.7,5.8
2013-06-08,0.0,15.7,8.6
2013-06-09,0.0,15.7,6.1
2013-06-10,1.4,14.2,5.4
2013-06-11,0.1,14.0,9.1
2013-06-12,3.3,18.0,12.6
2013-06-13,0.7,16.4,11.8
2013-06-14,6.0,13.0,5.9
2013-06-15,0.5,12.4,7.5
2013-06-16,1.0,15.3,9.7
2013-06-17,0.1,12.7,10.0
2013-06-18,0.0,15.9,9.7
2013-06-19,2.1,19.2,13.3
2013-06-20,0.8,17.4,11.4
2013-06-21,2.6,15.1,13.1
2013-06-22,0.7,14.3,10.7
2013-06-23,0.9,13.9,10.8
2013-06-24,0.0,13.6,9.7
2013-06-25,0.0,13.6,2.9
2013-06-26,0.0,15.2,7.8
2013-06-27,7.0,14.7,9.4
2013-06-28,0.5,15.8,11.1
2013-06-29,0.0,16.3,11.9
2013-06-30,0.0,19.0,11.0
2013-07-01,0.0,16.3,9.9
2013-07-02,2.2,13.9,8.0
2013-07-03,0.1,15.1,13.3
2013-07-04,0.0,18.4,10.2
2013-07-05,0.0,15.8,7.0
2013-07-06,0.0,19.5,8.1
2013-07-07,0.0,19.1,10.6
2013-07-08,0.0,22.2,14.2
2013-07-09,0.0,19.3,10.5
2013-07-10,0.0,21.9,11.3
2013-07-11,0.0,18.9,9.1
2013-07-12,0.0,16.8,9.4
2013-07-13,0.0,21.1,10.8
2013-07-14,0.0,23.0,12.9
2013-07-15,0.0,20.5,9.6
2013-07-16,0.0,21.9,11.1
2013-07-17,0.0,20.2,10.4
2013-07-18,0.0,22.2,13.9
2013-07-19,0.0,22.7,11.3
2013-07-20,0.0,22.0,14.0
2013-07-21,0.0,17.8,14.3
2013-07-22,18.7,19.2,15.2
2013-07-23,0.0,18.5,17.7
2013-07-24,2.1,19.5,11.9
2013-07-25,0.0,19.3,15.4
2013-07-26,0.0,20.2,10.8
2013-07-27,23.3,16.7,8.0
2013-07-28,2.7,17.6,12.6
2013-07-29,3.2,17.5,14.8
2013-07-30,1.9,18.2,11.5
2013-07-31,5.1,17.2,14.3
2013-08-01,0.1,19.0,15.0
2013-08-02,3.9,21.9,13.8
2013-08-03,3.9,18.8,12.0
2013-08-04,12.3,16.7,11.9
2013-08-05,8.0,16.3,14.6
2013-08-06,0.0,14.9,6.8
2013-08-07,0.0,18.6,9.8
2013-08-08,0.8,15.9,7.2
2013-08-09,0.0,17.7,14.7
2013-08-10,0.1,16.1,11.2
2013-08-11,0.0,18.0,9.4
2013-08-12,0.2,16.3,9.8
2013-08-13,1.2,13.5,5.6
2013-08-14,2.4,17.0,6.9
2013-08-15,15.6,21.6,15.5
2013-08-16,0.0,18.5,15.7
2013-08-17,1.5,15.8,8.0
2013-08-18,0.0,18.8,13.1
2013-08-19,0.0,17.6,7.8
2013-08-20,0.0,18.5,9.4
2013-08-21,1.7,17.0,7.9
2013-08-22,0.0,17.0,14.7
2013-08-23,6.6,18.5,10.2
2013-08-24,0.1,16.2,10.4
2013-08-25,0.1,14.6,6.9
2013-08-26,0.0,17.4,11.3
2013-08-27,0.0,15.4,8.4
2013-08-28,0.0,15.3,9.3
2013-08-29,0.0,15.8,7.0
2013-08-30,0.0,17.2,14.4
2013-08-31,0.0,17.6,9.9
2013-09-01,0.0,11.0,2.9
2013-09-02,0.0,16.7,8.2
2013-09-03,0.1,15.0,7.7
2013-09-04,0.0,13.0,7.4
2013-09-05,2.2,17.8,6.4
2013-09-06,4.2,14.2,10.0
2013-09-07,2.3,14.0,2.9
2013-09-08,4.5,13.4,2.3
2013-09-09,0.7,11.7,4.6
2013-09-10,0.1,13.8,6.3
2013-09-11,6.1,12.7,8.8
2013-09-12,0.9,15.0,10.9
2013-09-13,16.1,16.5,13.5
2013-09-14,0.4,11.9,7.3
2013-09-15,1.5,9.2,1.8
2013-09-16,0.0,12.0,6.6
2013-09-17,6.0,10.8,6.4
2013-09-18,0.1,12.0,9.1
2013-09-19,0.5,11.0,7.3
2013-09-20,0.0,14.2,7.8
2013-09-21,0.1,13.5,7.1
2013-09-22,0.0,17.8,15.4
2013-09-23,0.0,17.1,15.2
2013-09-24,1.0,15.5,13.6
2013-09-25,0.1,15.1,13.1
2013-09-26,0.0,14.6,12.0
2013-09-27,0.0,12.9,8.5
2013-09-28,0.0,14.1,9.8
2013-09-29,0.0,15.3,11.6
2013-09-30,0.9,13.9,11.4
2013-10-01,8.4,14.6,9.9
2013-10-02,4.1,14.9,12.5
2013-10-03,10.0,16.0,13.7
2013-10-04,1.7,16.5,14.3
2013-10-05,0.1,16.2,12.3
2013-10-06,0.0,12.6,5.9
2013-10-07,0.1,14.9,8.3
2013-10-08,0.0,17.1,13.3
2013-10-09,0.3,14.7,10.0
2013-10-10,0.3,8.9,4.9
2013-10-11,0.2,11.5,6.4
2013-10-12,3.2,11.3,10.0
2013-10-13,4.2,11.4,9.9
2013-10-14,2.1,9.1,7.9
2013-10-15,0.4,9.0,3.1
2013-10-16,7.6,9.1,4.5
2013-10-17,0.5,13.9,10.0
2013-10-18,3.7,12.3,7.2
2013-10-19,4.1,15.0,12.2
2013-10-20,11.4,12.7,9.4
2013-10-21,9.2,12.8,10.7
2013-10-22,5.9,14.8,13.7
2013-10-23,0.2,14.3,12.0
2013-10-24,6.0,8.3,3.3
2013-10-25,0.4,14.1,11.8
2013-10-26,5.2,14.3,12.4
2013-10-27,15.4,11.0,8.4
2013-10-28,0.6,12.1,7.7
2013-10-29,0.2,8.7,6.8
2013-10-30,2.2,5.8,-0.7
2013-10-31,1.3,11.8,5.8
2013-11-01,10.2,10.2,5.7
2013-11-02,6.1,10.2,6.2
2013-11-03,4.2,8.2,5.8
2013-11-04,3.6,6.4,0.1
2013-11-05,0.4,8.5,1.9
2013-11-06,6.7,8.6,7.2
2013-11-07,0.4,14.8,4.4
2013-11-08,4.0,6.2,0.6
2013-11-09,2.1,8.7,-0.6
2013-11-10,4.7,4.8,-1.1
2013-11-11,2.8,5.4,-0.9
2013-11-12,0.0,9.7,0.8
2013-11-13,1.2,12.8,6.0
2013-11-14,4.2,1.9,-2.0
2013-11-15,0.7,8.5,5.9
2013-11-16,0.1,5.1,-0.1
2013-11-17,0.2,5.9,3.9
2013-11-18,2.1,8.0,1.2
2013-11-19,2.1,8.0,6.5
2013-11-20,7.1,5.1,-1.6
2013-11-21,0.1,6.6,-3.1
2013-11-22,0.1,5.0,3.2
2013-11-23,0.1,3.7,0.9
2013-11-24,0.0,1.8,-2.0
2013-11-25,0.0,3.4,-2.5
2013-11-26,0.1,5.0,1.6
2013-11-27,0.1,0.0,-3.7
2013-11-28,0.0,7.1,2.7
2013-11-29,0.3,9.2,6.4
2013-11-30,0.0,9.0,6.6
2013-12-01,8.0,6.8,-0.8
2013-12-02,2.7,5.1,0.2
2013-12-03,0.3,5.5,3.8
2013-12-04,0.2,8.4,5.0
2013-12-05,1.3,6.9,-2.0
2013-12-06,0.1,6.2,-1.8
2013-12-07,0.5,7.4,2.6
2013-12-08,0.1,7.4,3.4
2013-12-09,0.2,8.4,2.5
2013-12-10,0.1,6.1,-0.4
2013-12-11,0.1,4.8,-1.2
2013-12-12,3.6,6.4,-1.4
2013-12-13,0.7,10.8,9.8
2013-12-14,0.2,7.9,-0.5
2013-12-15,3.2,10.2,2.5
2013-12-16,0.5,12.6,10.5
2013-12-17,0.2,6.3,-1.1
2013-12-18,11.5,7.0,-0.3
2013-12-19,2.3,6.6,-0.7
2013-12-20,2.2,3.6,-0.4
2013-12-21,4.9,10.0,7.9
2013-12-22,2.9,7.7,3.5
2013-12-23,17.3,6.3,0.5
2013-12-24,1.0,11.0,3.9
2013-12-25,1.6,4.1,0.3
2013-12-26,3.4,2.9,-0.9
2013-12-27,0.6,8.9,4.9
2013-12-28,0.5,5.5,1.8
2013-12-29,3.1,2.4,-2.5
2013-12-30,1.5,9.1,5.7
2013-12-31,3.9,8.9,3.6
2014-01-01,10.5,6.7,4.7
2014-01-02,4.2,9.0,4.4
2014-01-03,7.8,9.6,4.6
2014-01-04,0.6,7.3,3.6
2014-01-05,7.2,2.5,-2.1
2014-01-06,5.5,11.8,7.1
2014-01-07,1.7,9.3,6.0
2014-01-08,12.9,8.5,5.6
2014-01-09,0.1,9.9,5.0
2014-01-10,1.3,4.2,-1.1
2014-01-11,0.0,7.7,-0.2
2014-01-12,2.6,0.9,-4.0
2014-01-13,5.2,7.9,1.2
2014-01-14,2.8,3.8,-1.1
2014-01-15,4.4,8.7,4.4
2014-01-16,2.6,7.9,2.5
2014-01-17,1.9,6.5,4.2
2014-01-18,9.8,7.3,1.8
2014-01-19,0.0,7.0,-1.0
2014-01-20,0.2,3.7,-2.8
2014-01-21,4.3,2.0,-1.4
2014-01-22,1.5,6.5,3.5
2014-01-23,0.8,3.4,-1.1
2014-01-24,11.2,4.8,0.2
2014-01-25,4.6,7.8,4.1
2014-01-26,2.9,5.2,1.1
2014-01-27,6.5,4.8,1.1
2014-01-28,4.6,6.1,4.6
2014-01-29,4.5,5.0,4.5
2014-01-30,0.1,2.8,1.9
2014-01-31,7.2,2.2,1.7
2014-02-01,5.1,7.6,0.1
2014-02-02,0.2,7.6,3.0
2014-02-03,0.4,6.5,4.3
2014-02-04,4.8,5.2,1.6
2014-02-05,8.0,6.2,4.2
2014-02-06,12.5,8.9,5.4
2014-02-07,4.5,4.0,2.6
2014-02-08,7.8,7.3,3.4
2014-02-09,0.3,6.6,4.6
2014-02-10,6.8,2.4,-2.0
2014-02-11,4.7,5.0,-0.3
2014-02-12,8.5,4.5,0.4
2014-02-13,0.3,5.7,0.4
2014-02-14,8.7,4.3,1.3
2014-02-15,1.1,8.3,4.2
2014-02-16,0.2,4.9,-0.6
2014-02-17,2.7,6.9,2.9
2014-02-18,0.2,7.6,5.2
2014-02-19,1.2,5.3,1.9
2014-02-20,0.8,10.4,8.6
2014-02-21,2.6,6.0,0.4
2014-02-22,0.1,6.9,3.5
2014-02-23,0.7,9.9,7.4
2014-02-24,2.2,10.5,5.7
2014-02-25,0.5,8.7,4.2
2014-02-26,3.5,5.8,1.5
2014-02-27,3.6,6.9,4.8
2014-02-28,1.7,3.9,1.3
2014-03-01,0.1,9.2,-3.4
2014-03-02,7.6,10.2,1.0
2014-03-03,1.5,9.5,-1.3
2014-03-04,0.1,10.2,-1.2
2014-03-05,0.7,11.3,-1.6
2014-03-06,1.6,11.9,5.4
2014-03-07,0.0,13.8,9.4
2014-03-08,0.0,14.4,1.0
2014-03-09,0.0,16.9,1.5
2014-03-10,0.0,12.6,4.6
2014-03-11,0.0,11.7,0.7
2014-03-12,0.2,9.6,2.3
2014-03-13,0.2,9.7,0.4
2014-03-14,0.0,15.1,0.7
2014-03-15,0.0,16.2,2.8
2014-03-16,0.0,16.6,3.3
2014-03-17,0.2,12.8,7.6
2014-03-18,0.6,12.4,6.0
2014-03-19,0.0,14.5,6.7
2014-03-20,2.8,12.9,6.4
2014-03-21,2.3,11.0,0.9
2014-03-22,2.8,9.1,1.3
2014-03-23,0.7,9.1,1.0
2014-03-24,1.8,10.1,-4.0
2014-03-25,3.7,8.1,4.9
2014-03-26,1.8,9.1,0.1
2014-03-27,3.0,9.0,2.4
2014-03-28,2.3,12.0,-0.7
2014-03-29,0.0,17.3,5.3
2014-03-30,0.0,17.2,6.1
2014-03-31,6.1,15.9,6.8
2014-04-01,0.0,15.4,5.4
2014-04-02,0.3,12.7,8.1
2014-04-03,3.9,12.2,8.4
2014-04-04,0.0,13.5,8.8
2014-04-05,1.4,15.4,6.4
2014-04-06,5.5,16.1,10.6
2014-04-07,5.4,14.9,9.2
2014-04-08,0.1,12.2,4.4
2014-04-09,0.0,15.1,4.4
2014-04-10,0.0,13.0,4.0
2014-04-11,0.0,14.3,3.0
2014-04-12,0.0,13.5,3.8
2014-04-13,0.0,13.8,3.8
2014-04-14,0.0,13.3,5.4
2014-04-15,0.0,15.0,0.0
2014-04-16,0.0,15.8,0.4
2014-04-17,0.1,13.7,5.7
2014-04-18,0.0,13.7,1.0
2014-04-19,0.0,12.8,-0.1
2014-04-20,5.9,14.1,3.6
2014-04-21,1.8,18.7,4.1
2014-04-22,1.4,14.3,8.8
2014-04-23,1.8,15.2,7.9
2014-04-24,0.1,15.6,3.1
2014-04-25,12.7,11.8,6.4
2014-04-26,1.6,15.2,7.9
2014-04-27,1.9,15.6,7.0
2014-04-28,0.2,16.5,6.5
2014-04-29,0.1,17.3,8.2
2014-04-30,2.3,18.5,10.4
2014-05-01,4.2,14.8,10.3
2014-05-02,0.0,12.3,6.2
2014-05-03,0.2,14.1,1.2
2014-05-04,0.0,15.5,7.9
2014-05-05,5.0,16.5,5.0
2014-05-06,0.7,16.7,7.9
2014-05-07,4.6,15.0,8.2
2014-05-08,2.1,15.9,9.8
2014-05-09,3.9,14.9,9.8
2014-05-10,4.5,15.4,9.1
2014-05-11,2.5,12.7,8.7
2014-05-12,2.8,14.5,7.7
2014-05-13,3.2,14.9,5.5
2014-05-14,0.0,17.4,4.8
2014-05-15,0.0,19.7,5.8
2014-05-16,0.1,21.5,8.3
2014-05-17,0.0,21.2,8.8
2014-05-18,0.0,22.4,7.6
2014-05-19,0.7,25.0,7.7
2014-05-20,1.2,20.2,11.2
2014-05-21,6.3,19.2,4.6
2014-05-22,12.2,15.0,9.9
2014-05-23,8.4,14.6,10.0
2014-05-24,10.2,13.8,7.7
2014-05-25,0.3,15.3,6.2
2014-05-26,0.6,18.0,6.9
2014-05-27,4.5,17.6,10.8
2014-05-28,3.6,13.8,8.9
2014-05-29,2.4,14.5,10.5
2014-05-30,0.0,15.2,10.2
2014-05-31,0.0,18.9,11.4
2014-06-01,0.2,20.5,5.9
2014-06-02,1.0,20.0,12.1
2014-06-03,1.7,17.2,12.1
2014-06-04,9.0,14.1,9.8
2014-06-05,0.0,17.4,8.2
2014-06-06,4.5,21.9,4.2
2014-06-07,4.5,19.8,12.0
2014-06-08,2.7,20.8,10.5
2014-06-09,1.7,21.5,11.6
2014-06-10,1.5,20.1,10.3
2014-06-11,0.0,20.0,12.0
2014-06-12,0.0,22.4,7.6
2014-06-13,0.1,22.9,9.2
2014-06-14,2.2,22.1,11.2
2014-06-15,0.0,19.0,12.8
2014-06-16,0.0,18.8,13.5
2014-06-17,0.0,20.4,8.1
2014-06-18,0.0,23.7,12.8
2014-06-19,0.0,20.4,10.8
2014-06-20,0.0,22.5,11.2
2014-06-21,0.0,20.1,7.4
2014-06-22,0.0,23.5,8.4
2014-06-23,0.0,22.3,10.8
2014-06-24,0.0,20.0,9.5
2014-06-25,0.0,20.6,10.8
2014-06-26,5.4,20.1,12.3
2014-06-27,7.9,17.0,11.8
2014-06-28,0.8,16.5,10.7
2014-06-29,0.0,18.5,8.5
2014-06-30,0.0,20.9,6.5
2014-07-01,0.0,22.5,9.4
2014-07-02,0.0,22.5,9.0
2014-07-03,0.0,21.8,14.3
2014-07-04,8.5,20.8,15.6
2014-07-05,0.0,20.1,12.4
2014-07-06,2.0,19.8,9.0
2014-07-07,0.9,19.4,9.0
2014-07-08,0.8,19.3,10.5
2014-07-09,0.0,20.6,11.8
2014-07-10,0.0,22.7,8.2
2014-07-11,0.0,23.7,9.4
2014-07-12,0.8,24.1,10.3
2014-07-13,0.0,20.3,15.1
2014-07-14,0.9,21.3,7.6
2014-07-15,0.0,21.9,13.9
2014-07-16,0.4,23.8,10.0
2014-07-17,2.4,25.8,9.9
2014-07-18,12.9,27.5,16.4
2014-07-19,11.4,22.2,16.0
2014-07-20,0.0,23.7,14.5
2014-07-21,0.0,24.0,11.6
2014-07-22,0.0,26.1,11.5
2014-07-23,0.0,26.9,14.5
2014-07-24,0.0,27.4,11.8
2014-07-25,2.0,27.3,11.4
2014-07-26,0.0,27.9,11.6
2014-07-27,0.1,22.9,12.0
2014-07-28,0.0,23.7,12.5
2014-07-29,0.0,21.4,9.7
2014-07-30,0.0,23.3,12.5
2014-07-31,2.3,23.2,12.6
2014-08-01,6.2,20.9,14.0
2014-08-02,3.6,22.0,15.3
2014-08-03,0.0,22.4,10.5
2014-08-04,0.3,22.3,9.2